Location: ????
(33.1659°N, 35.6604°E)
Time: 09:54:35
(UTC+00:00)

ATLAS 2AS CENTAUR R/B - Pass Details

Date: 20 September 2019
Orbit: 919 x 1292 km, 63.6° (Epoch: 21 September)

Event Time Altitude Azimuth Distance (km) Brightness Sun altitude
Rises 17:19:01 0° 327° (NNW) 4,134 6.5 -21.8°
Reaches altitude 10° 17:21:54 10° 325° (NW) 3,118 5.8 -22.4°
Maximum altitude 17:29:15 68° 244° (WSW) 1,188 3.0 -23.8°
Enters shadow 17:33:22 26° 168° (SSE) 1,972 3.8 -24.6°
